Theta_e
336 332 326 324 322 320 317 316 315 313 312 313 313 313 313 312 310 309 309 308 308 308 310 311 310 311 311 310 310 309 309 310 309 311 312 313 312 311 311 310 311 311 312
336 329 325 323 322 320 319 318 315 313 311 312 313 313 312 311 311 309 309 308 308 308 309 310 310 310 311 311 311 310 309 309 309 309 311 313 312 311 310 310 309 310 310
336 333 327 324 323 319 319 317 316 313 312 311 311 311 310 310 311 311 311 309 307 306 307 308 309 310 310 311 311 310 310 309 309 309 309 311 312 309 310 309 309 308 309
334 335 332 326 325 322 318 317 316 314 312 311 313 314 314 313 312 311 311 308 306 306 306 306 308 309 310 310 311 310 310 309 309 309 308 308 308 310 311 309 308 308 308
335 334 333 330 327 323 319 316 315 313 312 312 313 314 313 312 311 311 310 308 306 304 305 305 306 308 309 310 310 311 311 310 309 309 309 309 308 308 309 310 309 307 307
332 332 331 329 325 321 318 316 315 314 313 312 313 313 313 312 311 311 309 307 306 306 304 303 304 306 308 309 309 310 310 310 309 309 309 309 309 308 308 309 309 308 307
330 331 332 326 324 318 316 315 314 313 312 312 313 313 313 312 312 310 308 306 305 305 305 303 305 306 306 306 307 308 309 310 309 309 309 308 308 308 308 308 308 308 307
326 329 329 327 322 317 315 313 313 313 312 312 312 311 311 310 308 306 304 303 303 303 302 302 302 303 304 305 306 307 308 308 309 309 309 308 308 307 307 307 306 307 307
320 325 325 325 320 317 315 313 312 312 311 311 310 308 308 306 304 302 301 302 301 300 301 300 302 302 303 303 304 305 306 306 307 308 308 308 308 307 307 306 306 306 306
315 318 322 320 320 316 314 312 311 310 309 308 307 305 304 302 300 300 300 300 300 299 300 301 301 302 302 303 304 305 305 305 306 306 307 307 307 307 307 306 306 306 305
310 311 314 316 316 315 312 311 310 307 306 304 303 302 300 299 299 299 299 299 299 299 300 300 300 301 301 302 303 303 304 304 305 305 305 306 306 306 306 306 305 305 305
309 309 311 312 312 311 310 309 307 305 303 302 300 300 299 298 298 299 299 298 299 298 298 297 298 298 299 300 300 301 301 302 303 303 304 304 304 304 305 305 305 305 304
307 308 309 310 309 308 306 306 304 303 301 299 299 298 298 298 298 298 297 297 297 297 296 297 297 297 297 298 299 299 299 299 299 300 300 301 302 303 303 303 303 304 303
307 308 309 308 307 305 304 303 301 300 299 298 298 298 298 298 298 297 297 296 296 296 296 296 296 296 297 298 299 299 299 299 298 298 298 298 299 299 300 300 301 301 301
306 307 308 307 305 303 302 301 300 299 298 298 298 298 298 297 297 296 296 296 296 296 296 296 296 296 298 299 299 298 298 298 297 297 296 296 296 296 296 297 298 299 299
307 307 307 306 305 303 301 300 299 298 298 298 298 297 297 296 296 296 296 296 295 295 295 295 296 296 297 296 296 297 297 297 297 297 297 297 297 297 297 297 296 296 298
307 306 306 306 304 302 301 299 298 298 297 298 297 296 296 296 296 295 295 295 294 293 294 293 293 294 295 295 295 295 296 297 296 296 296 296 296 296 298 298 298 297 297
306 306 306 305 304 302 300 299 298 297 297 297 296 296 296 296 295 294 294 294 293 293 293 291 290 290 290 290 290 290 291 294 295 296 295 295 294 293 294 295 294 294 294
305 305 305 304 304 302 300 299 297 297 297 297 296 296 296 295 294 293 293 293 292 292 291 290 289 289 288 288 288 288 290 291 292 290 290 290 291 290 292 293 292 292 292
302 302 303 303 302 301 299 298 297 297 297 297 296 296 295 294 293 293 292 292 292 291 289 289 288 288 288 288 288 289 290 291 291 291 289 288 287 287 290 291 291 291 291
301 300 300 301 301 300 298 298 298 297 297 296 295 294 294 293 292 292 291 290 290 289 289 288 288 287 287 288 287 287 288 290 291 290 290 289 287 287 287 289 290 289 290
299 299 299 299 299 298 298 298 298 297 297 295 294 292 292 291 291 291 290 289 289 289 289 289 288 287 287 287 287 287 287 289 291 290 290 289 287 288 288 290 289 289 289
299 298 298 298 297 296 297 298 298 297 295 294 292 292 291 290 290 290 290 289 289 288 288 288 288 288 287 287 287 287 287 287 289 290 289 287 287 287 288 289 288 289 288
298 297 296 297 296 295 296 297 296 295 294 293 291 291 290 290 289 289 289 288 288 288 288 287 288 288 288 287 287 287 287 287 288 288 288 288 288 287 287 287 287 288 287
297 296 296 297 296 294 295 295 293 293 293 292 291 290 289 289 288 288 288 288 288 288 288 287 287 288 288 288 287 287 289 290 290 290 290 290 289 289 288 288 288 287 287
297 296 296 296 296 294 294 293 292 292 292 291 290 289 289 289 288 288 288 288 291 287 287 287 287 287 287 287 287 287 288 289 289 290 290 289 289 288 288 287 287 287 287
Wind_Speed
21 16 16 20 22 23 23 22 21 19 16 12 9 6 6 6 6 5 4 2 2 4 4 4 4 4 5 6 7 8 8 8 10 4 4 4 2 3 3 5 5 7 7
17 15 15 19 23 25 24 23 21 20 17 13 8 5 7 6 6 6 5 3 3 5 4 4 4 4 4 4 6 7 7 6 8 6 4 2 3 1 3 2 5 6 5
19 17 18 19 19 22 25 25 23 20 18 15 12 10 8 6 6 7 5 4 5 5 5 4 4 4 4 4 4 4 5 6 5 6 5 2 3 8 1 2 3 7 6
15 16 20 20 21 21 21 25 23 20 18 17 12 11 9 8 7 7 6 5 5 4 4 3 3 3 4 4 4 3 3 4 5 3 4 3 4 3 3 2 5 7 7
17 16 19 23 22 21 21 21 23 21 19 18 14 12 10 8 7 6 5 3 3 3 3 3 4 3 4 5 5 5 4 4 4 4 5 4 4 3 4 6 7 11 4
15 16 21 19 20 20 19 19 19 19 18 18 15 13 11 9 7 6 5 3 3 2 3 4 4 4 4 4 5 5 6 5 5 6 5 6 4 4 5 6 10 11 7
17 17 18 23 23 22 20 19 20 19 18 17 15 13 11 9 8 6 5 4 3 2 2 3 3 3 4 4 5 5 5 6 6 6 6 6 7 6 7 9 11 8 13
17 17 21 23 24 24 22 21 21 19 18 16 14 12 10 8 7 6 5 4 3 3 4 4 4 4 4 4 4 5 5 6 6 7 6 7 7 6 6 7 9 7 9
18 19 21 23 24 24 24 24 21 19 18 16 15 13 12 10 8 7 5 4 4 3 3 3 2 3 3 3 4 4 5 6 6 6 6 6 6 6 6 7 7 6 4
14 15 16 22 21 21 23 20 20 19 18 16 15 13 12 10 8 7 6 5 4 3 2 2 1 1 1 1 2 3 3 4 5 5 6 6 7 7 6 6 7 8 9
11 12 13 18 20 21 21 21 19 19 17 16 14 13 11 10 9 8 7 6 5 5 4 3 2 2 1 0 0 1 2 3 4 4 5 6 6 7 7 7 7 8 9
9 10 14 18 19 20 20 20 19 18 17 16 14 13 12 11 10 9 9 8 7 6 5 4 3 2 2 3 2 2 2 2 3 4 4 5 5 7 7 7 8 9 10
8 9 11 15 19 19 19 19 19 18 17 16 15 14 13 12 12 11 11 10 9 7 6 5 4 3 3 3 3 2 2 2 3 4 4 5 6 6 6 7 9 9 9
9 10 11 13 17 19 20 20 19 19 19 18 17 16 16 15 13 12 11 10 9 8 6 5 4 4 3 3 3 3 3 3 4 4 4 4 5 6 7 7 8 8 10
10 13 14 14 20 22 21 21 20 21 20 19 18 17 16 14 14 14 12 11 9 8 7 5 4 3 3 3 3 3 3 3 3 4 4 4 5 5 5 5 7 8 9
10 13 15 16 21 22 23 22 21 21 20 19 18 17 17 15 15 14 13 12 10 9 7 6 5 4 3 2 1 2 2 2 3 3 4 4 6 6 7 7 7 6 7
11 14 16 18 22 24 25 25 24 22 21 20 18 18 17 17 16 15 14 12 11 9 7 6 5 4 3 2 0 1 1 1 1 2 3 3 5 7 7 9 10 9 9
9 11 13 20 23 24 25 23 22 22 21 19 18 18 18 18 17 16 14 13 11 10 9 8 6 6 4 2 1 0 0 0 1 1 2 4 6 7 9 10 11 11 11
6 10 15 20 21 24 23 23 22 22 21 22 22 22 21 20 18 17 15 13 11 10 9 8 7 6 5 4 3 2 1 1 0 2 4 5 6 8 9 10 11 13 12
6 7 11 15 21 24 26 26 25 25 25 24 24 23 22 20 19 18 16 15 12 11 10 9 8 7 6 5 4 3 3 1 1 2 4 5 8 11 9 10 11 14 15
4 5 9 15 19 23 28 28 27 28 25 22 21 21 20 19 17 16 14 14 13 11 10 9 8 7 7 6 6 5 3 3 3 4 4 6 11 12 12 11 10 12 17
4 4 7 11 14 20 26 27 28 23 21 22 23 22 21 19 17 16 15 14 12 10 9 8 8 9 8 8 7 6 6 6 5 7 7 9 13 14 14 13 13 15 14
5 5 8 9 12 17 24 24 21 21 22 21 21 20 19 19 19 17 15 13 12 10 9 9 8 8 9 9 9 8 9 9 8 9 12 15 17 17 17 16 18 17 14
7 7 8 11 13 16 20 20 21 22 23 23 21 20 19 18 18 17 14 13 13 11 10 10 10 9 8 9 9 10 11 11 11 11 14 15 17 19 20 20 19 15 15
7 8 10 11 13 16 19 18 19 22 21 19 19 19 19 19 17 18 17 15 13 12 13 14 11 9 8 10 9 10 9 9 10 11 13 14 14 14 15 16 16 17 17
9 11 12 12 13 16 17 17 18 22 22 20 18 18 17 16 15 14 13 11 16 16 16 16 15 14 14 13 12 12 13 13 13 13 15 16 16 16 17 16 17 17 19
Wind_Direction
183 186 178 185 183 188 189 190 188 186 178 174 170 185 195 198 207 207 216 227 290 320 309 308 321 339 355 1 2 358 1 2 359 324 268 252 251 359 5 27 26 20 27
179 176 171 182 192 192 196 196 196 196 191 189 182 179 182 199 200 209 210 215 297 308 300 293 297 305 318 341 359 6 357 1 7 355 292 296 198 334 352 6 28 11 5
190 180 179 183 187 193 196 199 200 202 196 197 197 195 191 196 202 205 204 236 288 297 305 298 294 292 287 304 331 351 2 352 2 16 359 310 347 331 264 304 327 358 348
204 196 189 190 190 197 196 202 202 202 201 205 201 201 210 208 206 196 204 246 275 291 300 303 301 287 275 276 284 301 320 334 343 345 4 351 325 336 326 314 323 330 311
197 200 200 201 194 188 189 193 199 199 203 207 206 208 212 206 192 200 216 236 262 273 278 295 296 286 276 269 265 273 283 302 315 323 329 324 316 288 302 308 328 331 330
204 205 200 196 198 189 183 184 189 194 200 205 207 209 208 201 198 207 218 226 235 247 279 296 292 286 278 277 276 271 271 285 294 297 301 305 310 321 307 307 317 321 328
205 203 198 193 192 189 181 186 190 193 197 201 203 204 204 202 207 209 216 220 238 244 275 293 297 289 280 277 274 270 265 268 273 283 289 288 290 300 302 302 301 309 315
210 204 205 197 196 187 183 189 191 192 193 194 195 196 196 195 198 203 209 219 227 244 268 284 289 289 285 280 278 278 275 269 275 274 272 284 290 284 283 281 307 315 308
207 203 200 192 196 185 187 190 189 191 189 188 187 188 193 197 198 208 214 209 222 235 259 274 274 275 276 276 271 267 271 271 269 274 271 269 278 281 281 280 274 274 304
215 210 199 197 194 188 188 185 189 187 183 182 182 183 188 192 195 197 195 196 204 205 204 209 214 243 285 292 280 268 268 266 266 262 271 276 283 283 280 277 276 267 266
222 210 205 199 193 187 182 181 181 178 176 177 177 179 181 185 185 184 189 188 185 177 169 159 141 132 120 48 345 321 308 296 287 276 275 276 275 276 277 274 269 267 263
230 212 198 190 186 184 180 177 177 177 176 175 174 173 178 180 179 181 182 179 175 171 165 152 139 126 101 77 47 356 355 337 322 318 315 306 299 291 287 285 282 281 281
215 196 188 185 182 178 175 175 176 175 174 174 173 173 175 177 180 181 181 178 172 164 155 147 139 119 101 83 64 18 6 359 350 349 341 330 323 315 313 305 300 298 295
211 196 188 185 181 180 178 176 175 176 175 177 176 177 179 180 180 179 177 174 169 163 158 148 131 118 98 65 48 29 21 21 27 21 12 360 350 336 331 323 316 311 306
201 198 195 186 184 183 180 179 179 178 178 177 179 182 179 178 179 179 176 173 168 165 159 145 134 124 94 57 42 33 39 45 48 36 32 23 14 4 357 346 334 326 318
212 205 201 196 191 187 185 183 182 181 179 180 183 180 179 177 179 178 177 174 172 170 165 162 157 150 135 115 53 51 43 44 55 47 34 34 28 23 21 17 5 347 330
220 208 206 204 198 193 187 187 183 180 182 184 182 180 178 180 182 180 178 178 177 177 177 176 173 170 168 168 297 0 11 43 54 41 18 8 359 359 350 342 340 332 323
248 230 215 208 203 196 193 187 183 183 183 184 182 181 182 182 183 183 184 183 182 179 176 176 176 175 183 179 199 304 320 309 274 287 336 343 345 342 343 333 327 325 322
261 244 228 218 205 198 191 185 183 184 185 187 187 186 185 183 185 187 186 186 184 183 183 183 181 182 193 202 213 219 221 223 248 339 351 344 342 334 342 337 328 323 323
266 246 222 209 204 198 188 186 187 188 193 191 191 188 187 188 188 188 186 189 185 184 187 191 195 201 208 215 220 225 231 241 315 328 332 335 339 336 340 334 327 319 321
299 239 210 207 208 196 189 189 188 197 195 190 186 186 190 190 190 186 187 188 188 189 194 199 208 213 215 223 226 233 250 264 278 288 306 319 328 325 324 320 311 307 311
290 239 220 218 211 198 192 189 194 194 186 183 186 188 189 189 188 187 188 188 189 192 199 205 213 222 223 225 230 235 245 259 273 290 300 308 316 314 306 300 288 301 299
271 230 217 215 207 200 199 196 196 183 182 182 184 184 185 188 190 185 185 187 194 198 203 209 216 219 225 231 239 244 252 261 268 281 292 302 306 307 306 305 303 298 288
256 236 216 212 203 198 199 201 188 186 181 179 181 183 183 183 188 189 192 194 200 205 213 223 230 228 232 242 248 252 254 255 264 276 286 291 295 296 296 298 299 293 286
241 225 220 219 209 194 193 190 184 179 176 179 181 180 179 184 189 198 201 207 218 226 229 233 235 237 238 247 255 257 252 260 272 285 283 281 283 283 286 289 290 290 290
230 221 220 214 202 193 190 187 185 182 176 177 178 179 181 183 190 196 208 230 250 241 239 241 246 252 256 261 266 265 264 267 272 275 274 276 277 281 285 288 291 292 292